This is the latest recevied weather packets stored in our database for station/object KB0Y. If no packets are shown the sender has not sent any weather packets the latest 10 day(s).
| Time | Temp. | Humidity | Pressure | Rain* | Wind** | Luminosity | Snow |
|---|---|---|---|---|---|---|---|
| 1777858064 | 15.56° C | 67% | 1021.6 hPa | 0 mm | - | 0 W/m² | - |
| 1777857762 | 15.56° C | 74% | 1021.6 hPa | 0 mm | - | 0 W/m² | - |
| 1777857459 | 16.11° C | 81% | 1021.6 hPa | 0 mm | - | 0 W/m² | - |
| 1777857155 | 16.11° C | 82% | 1021.6 hPa | 0 mm | - | 0 W/m² | - |
| 1777856851 | 16.11° C | 79% | 1021.6 hPa | 0 mm | - | 0 W/m² | - |
| 1777856547 | 16.67° C | 77% | 1021.6 hPa | 0 mm | - | 0 W/m² | - |
| 1777856244 | 16.67° C | 81% | 1021.6 hPa | 0 mm | - | 0 W/m² | - |
| 1777855942 | 17.22° C | 75% | 1021.3 hPa | 0 mm | - | 0 W/m² | - |
| 1777855639 | 17.22° C | 72% | 1021.3 hPa | 0 mm | - | 0 W/m² | - |
| 1777855336 | 17.78° C | 67% | 1021.3 hPa | 0 mm | - | 0 W/m² | - |
| 1777855032 | 17.78° C | 69% | 1021.3 hPa | 0 mm | - | 0 W/m² | - |
| 1777854729 | 17.78° C | 74% | 1021.3 hPa | 0 mm | - | 0 W/m² | - |
| 1777854426 | 18.33° C | 70% | 1021.3 hPa | 0 mm | - | 0 W/m² | - |
| 1777854123 | 18.89° C | 61% | 1021 hPa | 0 mm | - | 0 W/m² | - |
| 1777853821 | 18.89° C | 58% | 1021 hPa | 0 mm | - | 0 W/m² | - |
| 1777853517 | 19.44° C | 59% | 1021 hPa | 0 mm | - | 2 W/m² | - |
| 1777853214 | 20° C | 59% | 1021 hPa | 0 mm | - | 5 W/m² | - |
| 1777852911 | 20° C | 58% | 1021 hPa | 0 mm | - | 10 W/m² | - |
| 1777852609 | 20.56° C | 60% | 1021 hPa | 0 mm | - | 21 W/m² | - |
| 1777852306 | 20.56° C | 63% | 1020.6 hPa | 0 mm | - | 19 W/m² | - |
| 1777852004 | 21.11° C | 54% | 1021 hPa | 0 mm | - | 24 W/m² | - |
| 1777851702 | 21.67° C | 46% | 1021 hPa | 0 mm | - | 28 W/m² | - |
| 1777851398 | 22.22° C | 51% | 1021 hPa | 0 mm | - | 31 W/m² | - |
| 1777851094 | 22.78° C | 53% | 1021 hPa | 0 mm | - | 34 W/m² | - |
| 1777850791 | 22.78° C | 52% | 1021 hPa | 0 mm | - | 38 W/m² | - |
* Rain latest hour (hover to see other rain measurements)
** Current wind speed in m/s (hover to see current wind gust speed)